VR2R-13 Weather Reports


Display with metric or nautical units.
time (UTC)temp
F
wind
direction
speed
MPH
gust
MPH
rain 1hr
in
rain 24hr
in
rain mn
in
humidity
%
barometer
mb
20260503200224 63 3 9.0 13.0 0.00 0.00 0.00 92 913.4
20260503195925 62 313 10.0 13.0 0.00 0.00 0.00 92 913.5
20260503195723 63 347 9.0 14.0 0.00 0.00 0.00 92 913.4
20260503195324 62 353 10.0 14.0 0.00 0.00 0.00 92 913.3
20260503195223 62 347 10.0 14.0 0.00 0.00 0.00 92 913.3
20260503194723 61 354 11.0 14.0 0.00 0.00 0.00 92 913.4
20260503194223 61 337 10.0 15.0 0.00 0.00 0.00 93 913.4
20260503194124 61 333 10.0 15.0 0.00 0.00 0.00 93 913.5
20260503193723 61 7 12.0 15.0 0.00 0.00 0.00 94 913.5
20260503193525 61 10 11.0 16.0 0.00 0.00 0.00 95 913.5
20260503193223 61 9 10.0 16.0 0.00 0.00 0.00 95 913.5
20260503192924 61 349 11.0 16.0 0.00 0.00 0.00 95 913.5
20260503192723 60 345 12.0 16.0 0.00 0.00 0.00 95 913.5
20260503192324 60 348 11.0 16.0 0.00 0.00 0.00 95 913.5
20260503191724 60 359 13.0 16.0 0.00 0.00 0.00 95 913.4
20260503191223 60 360 12.0 16.0 0.00 0.00 0.00 96 913.4
20260503191124 60 342 12.0 16.0 0.00 0.00 0.00 96 913.5
20260503190723 61 360 11.0 14.0 0.00 0.00 0.00 96 913.6
20260503190524 62 359 9.0 13.0 0.00 0.00 0.00 96 913.7
20260503190223 62 357 8.0 11.0 0.00 0.00 0.00 96 913.7
20260503185924 62 335 6.0 10.0 0.00 0.00 0.00 96 913.8
20260503185723 63 360 6.0 10.0 0.00 0.00 0.00 96 913.9
20260503185324 63 305 4.0 8.0 0.00 0.00 0.00 96 913.9
20260503185224 63 328 3.0 7.0 0.00 0.00 0.00 96 914.0
20260503184724 63 325 3.0 7.0 0.00 0.00 0.00 96 913.9
20260503184722 63 317 3.0 7.0 0.00 0.00 0.00 96 913.9
20260503184223 63 309 2.0 5.0 0.00 0.00 0.00 96 914.0
20260503184124 63 335 2.0 5.0 0.00 0.00 0.00 96 914.0
20260503183722 63 334 2.0 4.0 0.00 0.00 0.00 97 913.9
20260503183524 63 353 1.0 5.0 0.00 0.00 0.00 97 913.9
20260503183223 63 354 3.0 5.0 0.00 0.00 0.00 97 913.9
20260503182924 63 40 2.0 4.0 0.00 0.00 0.00 97 913.9
20260503182723 63 44 2.0 4.0 0.00 0.00 0.00 97 913.9
20260503182324 63 355 2.0 3.0 0.00 0.00 0.00 97 913.9
20260503182222 63 8 2.0 3.0 0.00 0.00 0.00 97 914.0
20260503181722 63 360 2.0 3.0 0.00 0.00 0.00 97 914.1
20260503181222 63 20 1.0 2.0 0.00 0.00 0.00 97 914.2
20260503181123 63 13 0.0 2.0 0.00 0.00 0.00 97 914.2
20260503180722 63 254 0.0 4.0 0.00 0.00 0.00 97 914.3
20260503180524 63 260 0.0 4.0 0.00 0.00 0.00 97 914.3
20260503180222 63 277 0.0 4.0 0.00 0.00 0.00 97 914.4
20260503175923 63 315 3.0 4.0 0.00 0.00 0.00 97 914.5
20260503175722 63 301 3.0 4.0 0.00 0.00 0.00 97 914.6
20260503175323 63 266 2.0 4.0 0.00 0.00 0.00 98 914.6
20260503175222 63 277 3.0 4.0 0.00 0.00 0.00 98 914.6
20260503174123 63 288 0.0 3.0 0.00 0.00 0.00 98 914.7
20260503173523 63 263 2.0 4.0 0.00 0.00 0.00 97 914.8
20260503173222 63 262 2.0 4.0 0.00 0.00 0.00 97 914.9
20260503172923 63 260 2.0 6.0 0.00 0.00 0.00 97 914.9
20260503172722 63 264 2.0 6.0 0.00 0.00 0.00 97 914.9
20260503172324 63 251 3.0 6.0 0.00 0.00 0.00 97 914.9
20260503171724 63 227 4.0 5.0 0.00 0.00 0.00 97 915.0
20260503171123 63 224 2.0 5.0 0.00 0.00 0.00 97 915.2
20260503170722 63 242 2.0 6.0 0.00 0.00 0.00 97 915.2
20260503170523 63 215 3.0 6.0 0.00 0.00 0.00 97 915.3
20260503170222 63 201 4.0 6.0 0.00 0.00 0.00 97 915.3
20260503150721 65 87 2.0 4.0 0.00 0.00 0.00 95 915.6
20260503150221 65 46 3.0 8.0 0.00 0.00 0.00 95 915.6
20260503140220 64 38 4.0 8.0 0.01 0.01 0.00 98 915.3
20260503131121 63 12 0.0 9.0 0.00 0.00 0.00 98 915.4
20260503130521 64 1 8.0 13.0 0.00 0.00 0.00 98 915.0
20260503120219 64 67 8.0 16.0 0.01 0.01 0.00 97 914.8
20260503110719 63 56 9.0 14.0 0.00 0.00 0.00 97 913.4
20260503110520 63 70 1.0 13.0 0.00 0.00 0.00 97 913.4
20260503110219 63 42 6.0 10.0 0.00 0.00 0.00 98 913.5
20260503100220 63 14 7.0 10.0 0.01 0.01 0.00 97 912.9
20260503090218 64 4 9.0 16.0 0.00 0.00 0.00 99 911.8
20260503081218 64 335 5.0 11.0 0.02 0.02 0.00 98 911.9
20260503081119 64 30 4.0 9.0 0.02 0.02 0.00 98 912.0
20260503080717 64 16 3.0 7.0 0.01 0.01 0.00 98 912.3
20260503080520 64 152 4.0 7.0 0.01 0.01 0.00 98 912.3
20260503080217 64 41 0.0 7.0 0.00 0.00 0.00 98 912.2
20260503072919 63 259 4.0 11.0 0.01 0.01 0.00 98 911.9
20260503072717 63 352 5.0 11.0 0.01 0.01 0.00 98 911.8
20260503072318 63 10 5.0 11.0 0.00 0.00 0.00 98 912.0
20260503072217 63 360 1.0 10.0 0.00 0.00 0.00 98 911.9
20260503071719 64 151 4.0 12.0 0.00 0.00 0.00 98 912.2
20260503071717 64 145 4.0 12.0 0.00 0.00 0.00 98 912.2
20260503071218 63 184 0.0 0.0 0.00 0.00 0.00 98 912.2
20260503071118 63 13 1.0 9.0 0.00 0.00 0.00 98 912.4
20260503070717 63 250 4.0 10.0 0.00 0.00 0.00 98 912.2
20260503070518 63 56 4.0 9.0 0.00 0.00 0.00 98 912.3
20260503070217 63 131 0.0 4.0 0.00 0.00 0.00 98 912.1
20260503060217 63 360 8.0 13.0 0.00 0.00 0.00 98 912.6
20260503054718 63 50 2.0 14.0 0.00 0.00 0.00 98 912.3
20260503054716 63 38 2.0 14.0 0.00 0.00 0.00 98 912.3
20260503054118 64 26 11.0 16.0 0.00 0.00 0.00 98 912.4
20260503053718 63 10 9.0 16.0 0.00 0.00 0.00 98 912.4
20260503053518 63 23 7.0 16.0 0.00 0.00 0.00 98 912.5
20260503053216 63 27 0.0 9.0 0.00 0.00 0.00 98 912.7
20260503052917 64 357 10.0 16.0 0.00 0.00 0.00 98 912.6
20260503052716 64 34 10.0 16.0 0.00 0.00 0.00 98 912.8
20260503052317 64 34 9.0 16.0 0.00 0.00 0.00 98 913.0
20260503052216 64 360 7.0 12.0 0.00 0.00 0.00 98 913.0
20260503051718 64 28 6.0 17.0 0.00 0.00 0.00 97 913.0
20260503051716 64 16 6.0 17.0 0.00 0.00 0.00 97 913.0
20260503051216 64 58 5.0 15.0 0.00 0.00 0.00 98 913.2
20260503051117 64 59 0.0 0.0 0.00 0.00 0.00 97 913.1
20260503050716 65 59 6.0 15.0 0.00 0.00 0.00 98 913.2
20260503050517 65 29 7.0 15.0 0.00 0.00 0.00 98 913.3
20260503050216 65 21 9.0 17.0 0.00 0.00 0.00 98 913.2
20260503045716 66 62 1.0 15.0 0.00 0.00 0.00 98 913.3
20260503045317 67 46 5.0 8.0 0.00 0.00 0.00 97 913.5
20260503045216 67 360 2.0 8.0 0.00 0.00 0.00 97 913.6
20260503044718 69 124 2.0 4.0 0.00 0.00 0.00 98 913.7
20260503044216 69 181 0.0 3.0 0.00 0.00 0.00 98 913.8
20260503044117 69 319 2.0 6.0 0.00 0.00 0.00 98 913.9
20260503043716 69 259 3.0 8.0 0.00 0.00 0.00 98 913.7
20260503043517 69 220 0.0 0.0 0.00 0.00 0.00 98 913.8
20260503043216 69 188 2.0 8.0 0.00 0.00 0.00 98 913.9
20260503042917 69 290 5.0 8.0 0.00 0.00 0.00 98 913.8
20260503042716 69 280 3.0 6.0 0.00 0.00 0.00 98 913.8
20260503042317 69 260 1.0 5.0 0.00 0.00 0.00 98 913.9
20260503041718 69 283 3.0 9.0 0.00 0.00 0.00 98 914.1
20260503041716 69 268 3.0 9.0 0.00 0.00 0.00 98 914.1
20260503041216 69 271 3.0 5.0 0.00 0.00 0.00 98 914.1
20260503041117 69 250 2.0 5.0 0.00 0.00 0.00 98 914.1
20260503040715 69 271 0.0 5.0 0.00 0.00 0.00 98 914.1
20260503040517 69 250 1.0 6.0 0.00 0.00 0.00 98 914.2
20260503040216 69 269 2.0 5.0 0.00 0.00 0.00 98 914.1
20260503035917 69 236 0.0 2.0 0.00 0.00 0.00 99 914.2
20260503035715 69 235 2.0 7.0 0.00 0.00 0.00 98 914.2
20260503035317 69 264 3.0 6.0 0.00 0.00 0.00 98 914.1
20260503035216 69 265 3.0 6.0 0.00 0.00 0.00 98 914.1
20260503034715 69 261 1.0 5.0 0.00 0.00 0.00 98 914.1
20260503034215 69 265 1.0 6.0 0.00 0.00 0.00 98 914.2
20260503033715 69 285 3.0 11.0 0.00 0.00 0.00 98 914.2
20260503033517 69 248 7.0 12.0 0.00 0.00 0.00 98 914.2
20260503033215 68 254 6.0 12.0 0.00 0.00 0.00 98 914.2
20260503032917 69 251 7.0 12.0 0.00 0.00 0.00 98 914.2
20260503032716 69 280 7.0 12.0 0.00 0.00 0.00 98 914.2
20260503032316 68 262 4.0 11.0 0.00 0.00 0.00 98 914.4
20260503032215 68 281 0.0 8.0 0.00 0.00 0.00 98 914.3
20260503031717 68 258 5.0 13.0 0.00 0.00 0.00 98 914.4
20260503031715 68 259 5.0 13.0 0.00 0.00 0.00 98 914.4
20260503031117 68 250 1.0 6.0 0.00 0.00 0.00 99 914.3
20260503030715 68 254 0.0 5.0 0.00 0.00 0.00 98 914.4
20260503030516 68 266 2.0 7.0 0.00 0.00 0.00 98 914.4
20260503030215 68 273 5.0 9.0 0.00 0.00 0.00 98 914.3
20260503025916 68 255 0.0 6.0 0.00 0.00 0.00 99 914.5
20260503025215 68 262 5.0 11.0 0.00 0.00 0.00 99 914.4
20260503024717 68 295 1.0 8.0 0.00 0.00 0.00 99 914.4
20260503024715 68 247 1.0 8.0 0.00 0.00 0.00 99 914.4
20260503024215 67 232 0.0 2.0 0.00 0.00 0.00 99 914.4
20260503024116 68 287 4.0 11.0 0.00 0.00 0.00 99 914.3
20260503023715 67 277 1.0 7.0 0.00 0.00 0.00 99 914.5
20260503023516 68 273 2.0 8.0 0.00 0.00 0.00 99 914.5
20260503015916 68 285 2.0 6.0 0.00 0.00 0.00 99 914.8
20260503015715 67 278 0.0 1.0 0.00 0.00 0.00 99 914.8
20260503015316 67 278 0.0 2.0 0.00 0.00 0.00 99 914.8
20260503015214 67 310 0.0 5.0 0.00 0.00 0.00 99 914.8
20260503014215 67 285 0.0 7.0 0.00 0.00 0.00 99 914.7
20260503014116 67 268 0.0 4.0 0.00 0.00 0.00 99 914.8
20260503012316 68 248 5.0 7.0 0.00 0.00 0.00 98 914.3
20260503012214 67 247 2.0 7.0 0.00 0.00 0.00 98 914.3
20260503011716 67 222 5.0 10.0 0.00 0.00 0.00 98 914.2
20260503011714 67 207 5.0 10.0 0.00 0.00 0.00 98 914.1
20260503011215 67 261 2.0 5.0 0.00 0.00 0.00 98 914.1
20260503011116 67 272 0.0 0.0 0.00 0.00 0.00 99 914.1
20260503010214 67 236 6.0 10.0 0.00 0.00 0.00 98 914.0
20260503005715 67 263 2.0 11.0 0.00 0.00 0.00 98 913.9
20260503005315 67 254 5.0 8.0 0.00 0.00 0.00 98 913.9
20260503005214 67 258 3.0 8.0 0.00 0.00 0.00 98 913.9
20260503004716 67 227 6.0 15.0 0.00 0.00 0.00 98 913.7
20260503004214 67 279 8.0 14.0 0.00 0.00 0.00 98 913.6
20260503004115 67 210 9.0 14.0 0.00 0.00 0.00 98 913.7
20260503003714 67 276 9.0 14.0 0.00 0.00 0.00 98 913.6
20260503003515 67 253 7.0 11.0 0.00 0.00 0.00 98 913.7
20260503003214 67 309 6.0 12.0 0.00 0.00 0.00 98 913.6
20260503002915 67 263 8.0 12.0 0.00 0.00 0.00 98 913.6
20260503002714 66 256 8.0 12.0 0.00 0.00 0.00 98 913.4
20260503002315 67 290 8.0 14.0 0.00 0.00 0.00 98 913.5
20260503002214 66 213 8.0 14.0 0.00 0.00 0.00 98 913.5
20260503001715 67 266 9.0 14.0 0.00 0.00 0.00 98 913.5
20260503001214 67 258 7.0 12.0 0.00 0.00 0.00 98 913.5
20260503001115 67 235 7.0 12.0 0.00 0.00 0.00 98 913.4
20260503000714 67 256 6.0 11.0 0.00 0.00 0.00 98 913.4
20260503000515 67 239 7.0 11.0 0.00 0.00 0.00 98 913.4
20260503000214 66 273 0.0 9.0 0.00 0.00 0.00 98 913.3
20260502235915 66 236 8.0 12.0 0.00 0.00 0.00 98 913.3
20260502235714 66 231 7.0 13.0 0.00 0.00 0.00 98 913.3
20260502235315 66 219 8.0 13.0 0.00 0.00 0.00 98 913.2
20260502235214 66 206 8.0 14.0 0.00 0.00 0.00 98 913.2
20260502234715 66 254 9.0 15.0 0.00 0.00 0.00 98 913.1
20260502234214 66 278 9.0 15.0 0.00 0.00 0.00 98 913.1
20260502234115 66 224 10.0 15.0 0.00 0.00 0.00 98 913.1
20260502233713 66 237 11.0 15.0 0.00 0.00 0.00 98 913.1
20260502233515 66 251 10.0 15.0 0.00 0.00 0.00 98 912.9
20260502233213 66 231 0.0 12.0 0.00 0.00 0.00 98 913.1
20260502232915 66 240 11.0 17.0 0.00 0.00 0.00 98 913.0
20260502232714 66 250 9.0 16.0 0.00 0.00 0.00 98 913.1
20260502232315 66 269 10.0 16.0 0.00 0.00 0.00 98 913.1
20260502232213 66 250 9.0 16.0 0.00 0.00 0.00 98 912.9
20260502231715 66 247 9.0 14.0 0.00 0.00 0.00 98 913.1
20260502231713 66 262 9.0 14.0 0.00 0.00 0.00 98 913.1
20260502231213 66 290 9.0 15.0 0.00 0.00 0.00 98 913.0
20260502231115 66 251 9.0 15.0 0.00 0.00 0.00 98 913.0
20260502230713 66 264 9.0 15.0 0.00 0.00 0.00 98 913.1
20260502230514 66 236 9.0 12.0 0.00 0.00 0.00 98 913.0
20260502230213 66 205 8.0 12.0 0.00 0.00 0.00 98 913.1
20260502225916 66 247 8.0 14.0 0.00 0.00 0.00 98 913.0
20260502225713 66 223 8.0 14.0 0.00 0.00 0.00 98 913.0
20260502225314 66 227 10.0 14.0 0.00 0.00 0.00 98 912.9
20260502224715 66 229 5.0 13.0 0.00 0.00 0.00 98 912.8
20260502224713 66 235 5.0 13.0 0.00 0.00 0.00 98 912.8
20260502224213 66 222 9.0 15.0 0.00 0.00 0.00 98 912.9
20260502224114 66 255 8.0 15.0 0.00 0.00 0.00 98 912.8
20260502223713 66 207 9.0 15.0 0.00 0.00 0.00 98 912.8
20260502223514 66 255 7.0 13.0 0.00 0.00 0.00 98 912.6
20260502223213 66 232 8.0 13.0 0.00 0.00 0.00 98 912.8
20260502222914 65 245 8.0 13.0 0.00 0.00 0.00 98 912.8
20260502222713 65 284 9.0 13.0 0.00 0.00 0.00 98 912.8
20260502222314 66 255 7.0 11.0 0.00 0.00 0.00 98 912.7
20260502221715 65 228 8.0 12.0 0.00 0.00 0.00 98 912.7
20260502221114 65 221 6.0 13.0 0.00 0.00 0.00 98 912.6
20260502220713 65 258 8.0 13.0 0.00 0.00 0.00 98 912.5
20260502220514 65 230 7.0 13.0 0.00 0.00 0.00 98 912.6
20260502220213 65 267 7.0 12.0 0.00 0.00 0.00 98 912.5
20260502215914 65 273 8.0 12.0 0.00 0.00 0.00 98 912.5
20260502215713 65 201 8.0 17.0 0.00 0.00 0.00 98 912.6
20260502215314 65 246 8.0 17.0 0.00 0.00 0.00 98 912.7
20260502215213 65 222 8.0 17.0 0.00 0.00 0.00 98 912.7
20260502214714 65 257 8.0 14.0 0.00 0.00 0.00 98 912.6
20260502214213 65 242 8.0 13.0 0.00 0.00 0.00 98 912.7
20260502214114 65 274 7.0 13.0 0.00 0.00 0.00 98 912.7
20260502213712 65 263 8.0 14.0 0.00 0.00 0.00 98 912.7
20260502213514 65 255 9.0 14.0 0.00 0.00 0.00 98 912.7
20260502213213 65 239 8.0 14.0 0.00 0.00 0.00 98 912.7
20260502212914 65 234 9.0 14.0 0.00 0.00 0.00 98 912.7
20260502212314 65 218 8.0 11.0 0.00 0.00 0.00 98 912.7
20260502212212 65 266 7.0 11.0 0.00 0.00 0.00 98 912.7
20260502211714 65 260 8.0 11.0 0.00 0.00 0.00 98 912.8
20260502211712 65 221 8.0 11.0 0.00 0.00 0.00 98 912.8
20260502211212 65 253 7.0 10.0 0.00 0.00 0.00 98 912.7
20260502211114 65 274 7.0 10.0 0.00 0.00 0.00 98 912.7
20260502210712 65 251 7.0 12.0 0.00 0.00 0.00 98 912.6
20260502210514 65 276 7.0 12.0 0.00 0.00 0.00 98 912.5
20260502210212 65 183 7.0 12.0 0.00 0.00 0.00 98 912.5
20260502205914 65 247 7.0 10.0 0.00 0.00 0.00 98 912.4
20260502205712 65 219 3.0 9.0 0.00 0.00 0.00 98 912.4
20260502205313 65 248 7.0 12.0 0.00 0.00 0.00 98 912.4
20260502205212 65 257 7.0 12.0 0.00 0.00 0.00 98 912.4
20260502204715 65 279 8.0 12.0 0.00 0.00 0.00 98 912.6
20260502204212 65 200 1.0 12.0 0.00 0.00 0.00 98 912.5
20260502204113 65 233 8.0 12.0 0.00 0.00 0.00 98 912.4
20260502203712 65 227 8.0 15.0 0.00 0.00 0.00 98 912.4
20260502203513 65 189 6.0 15.0 0.00 0.00 0.00 98 912.4
20260502203212 65 237 10.0 15.0 0.00 0.00 0.00 98 912.3
20260502202913 65 216 9.0 14.0 0.00 0.00 0.00 98 912.2
20260502202712 65 269 3.0 13.0 0.00 0.00 0.00 98 912.2
20260502202313 64 243 8.0 15.0 0.00 0.00 0.00 98 912.2
20260502202212 64 264 10.0 15.0 0.00 0.00 0.00 98 912.2
20260502201714 65 234 9.0 16.0 0.00 0.00 0.00 98 912.1
20260502201712 65 220 9.0 16.0 0.00 0.00 0.00 98 912.1
20260502201212 65 203 10.0 16.0 0.00 0.00 0.00 98 911.9
20260502201114 65 235 10.0 16.0 0.00 0.00 0.00 98 911.9
20260502200712 65 235 8.0 14.0 0.00 0.00 0.00 98 912.0
20260502200513 65 247 8.0 14.0 0.00 0.00 0.00 98 911.9